Time,TemperatureF,DewpointF,PressureIn,WindDirection,WindDirectionDegrees,WindSpeedMPH,WindSpeedGustMPH,Humidity,HourlyPrecipIn,Conditions,Clouds,dailyrainin,SoftwareType,DateUTC
2013-03-17 00:03:00,61.0,55.0,30.12,SE,145,1.0,-999.0,82,-99.99,,,-99.99,,2013-03-17 04:03:00,
2013-03-17 00:13:00,61.0,55.0,30.12,SE,145,1.0,-999.0,82,-99.99,,,-99.99,,2013-03-17 04:13:00,
2013-03-17 00:23:00,61.0,56.0,30.12,SE,145,0.0,-999.0,83,-99.99,,,-99.99,,2013-03-17 04:23:00,
2013-03-17 00:33:00,61.0,56.0,30.11,SE,145,0.0,-999.0,84,-99.99,,,-99.99,,2013-03-17 04:33:00,
2013-03-17 00:43:00,61.0,56.0,30.11,SE,145,0.0,-999.0,84,-99.99,,,-99.99,,2013-03-17 04:43:00,
2013-03-17 00:53:00,60.0,55.0,30.11,SE,145,1.0,-999.0,85,-99.99,,,-99.99,,2013-03-17 04:53:00,
2013-03-17 01:03:00,60.0,56.0,30.11,SE,145,0.0,-999.0,86,-99.99,,,-99.99,,2013-03-17 05:03:00,
2013-03-17 01:12:00,60.0,56.0,30.11,SE,145,0.0,-999.0,86,-99.99,,,-99.99,,2013-03-17 05:12:00,
2013-03-17 01:22:00,60.0,56.0,30.11,SE,145,0.0,-999.0,87,-99.99,,,-99.99,,2013-03-17 05:22:00,
2013-03-17 01:32:00,61.0,57.0,30.10,SE,145,0.0,-999.0,86,-99.99,,,-99.99,,2013-03-17 05:32:00,
2013-03-17 01:42:00,61.0,57.0,30.10,SE,145,0.0,-999.0,86,-99.99,,,-99.99,,2013-03-17 05:42:00,
2013-03-17 01:52:00,61.0,56.0,30.10,SE,145,0.0,-999.0,85,-99.99,,,-99.99,,2013-03-17 05:52:00,
2013-03-17 02:02:00,62.0,58.0,30.10,SE,145,0.0,-999.0,86,-99.99,,,-99.99,,2013-03-17 06:02:00,
2013-03-17 02:12:00,62.0,58.0,30.10,SE,145,0.0,-999.0,86,-99.99,,,-99.99,,2013-03-17 06:12:00,
2013-03-17 02:22:00,61.0,56.0,30.10,SE,145,0.0,-999.0,85,-99.99,,,-99.99,,2013-03-17 06:22:00,
2013-03-17 02:32:00,61.0,56.0,30.09,SE,145,0.0,-999.0,85,-99.99,,,-99.99,,2013-03-17 06:32:00,
2013-03-17 02:42:00,61.0,56.0,30.09,SE,145,0.0,-999.0,85,-99.99,,,-99.99,,2013-03-17 06:42:00,
2013-03-17 02:52:00,61.0,56.0,30.09,SE,145,0.0,-999.0,85,-99.99,,,-99.99,,2013-03-17 06:52:00,
2013-03-17 03:02:00,61.0,56.0,30.09,SE,145,0.0,-999.0,84,-99.99,,,-99.99,,2013-03-17 07:02:00,
2013-03-17 03:12:00,61.0,56.0,30.09,SE,145,0.0,-999.0,84,-99.99,,,-99.99,,2013-03-17 07:12:00,
2013-03-17 03:22:00,60.0,55.0,30.09,SSE,147,2.0,-999.0,84,-99.99,,,-99.99,,2013-03-17 07:22:00,
2013-03-17 03:32:00,60.0,55.0,30.08,SSE,149,1.0,-999.0,85,-99.99,,,-99.99,,2013-03-17 07:32:00,
2013-03-17 03:42:00,60.0,55.0,30.08,SSE,149,1.0,-999.0,85,-99.99,,,-99.99,,2013-03-17 07:42:00,
2013-03-17 03:52:00,60.0,56.0,30.08,SSE,149,0.0,-999.0,86,-99.99,,,-99.99,,2013-03-17 07:52:00,
2013-03-17 04:03:00,60.0,56.0,30.08,SSE,148,0.0,-999.0,86,-99.99,,,-99.99,,2013-03-17 08:03:00,
2013-03-17 04:13:00,61.0,56.0,30.06,ESE,111,1.0,-999.0,85,-99.99,,,-99.99,,2013-03-17 08:13:00,
2013-03-17 04:22:00,61.0,56.0,30.06,ESE,111,1.0,-999.0,85,-99.99,,,-99.99,,2013-03-17 08:22:00,
2013-03-17 04:33:00,61.0,57.0,30.06,ESE,109,2.0,-999.0,86,-99.99,,,-99.99,,2013-03-17 08:33:00,
2013-03-17 04:42:00,61.0,57.0,30.06,ESE,109,2.0,-999.0,86,-99.99,,,-99.99,,2013-03-17 08:42:00,
2013-03-17 04:52:00,61.0,57.0,30.06,ESE,107,1.0,-999.0,86,-99.99,,,-99.99,,2013-03-17 08:52:00,
2013-03-17 05:03:00,60.0,55.0,30.06,ESE,107,1.0,-999.0,85,-99.99,,,-99.99,,2013-03-17 09:03:00,
2013-03-17 05:13:00,60.0,55.0,30.06,ESE,107,1.0,-999.0,85,-99.99,,,-99.99,,2013-03-17 09:13:00,
2013-03-17 05:22:00,60.0,55.0,30.06,ESE,107,0.0,-999.0,85,-99.99,,,-99.99,,2013-03-17 09:22:00,
2013-03-17 05:32:00,59.0,55.0,30.06,ESE,107,0.0,-999.0,86,-99.99,,,-99.99,,2013-03-17 09:32:00,
2013-03-17 05:43:00,59.0,55.0,30.06,ESE,107,0.0,-999.0,86,-99.99,,,-99.99,,2013-03-17 09:43:00,
2013-03-17 05:53:00,59.0,55.0,30.05,ESE,107,0.0,-999.0,86,-99.99,,,-99.99,,2013-03-17 09:53:00,
2013-03-17 06:03:00,59.0,55.0,30.05,ESE,107,0.0,-999.0,86,-99.99,,,-99.99,,2013-03-17 10:03:00,
2013-03-17 06:13:00,59.0,55.0,30.05,ESE,107,0.0,-999.0,86,-99.99,,,-99.99,,2013-03-17 10:13:00,
2013-03-17 06:23:00,60.0,56.0,30.05,ESE,107,1.0,-999.0,87,-99.99,,,-99.99,,2013-03-17 10:23:00,
2013-03-17 06:33:00,60.0,56.0,30.06,ESE,107,1.0,-999.0,86,-99.99,,,-99.99,,2013-03-17 10:33:00,
2013-03-17 06:42:00,60.0,56.0,30.06,ESE,107,1.0,-999.0,86,-99.99,,,-99.99,,2013-03-17 10:42:00,
2013-03-17 06:52:00,59.0,54.0,30.06,ESE,107,0.0,-999.0,85,-99.99,,,-99.99,,2013-03-17 10:52:00,
2013-03-17 07:03:00,58.0,54.0,30.07,ESE,107,0.0,-999.0,87,-99.99,,,-99.99,,2013-03-17 11:03:00,
2013-03-17 07:12:00,58.0,54.0,30.07,ESE,107,0.0,-999.0,87,-99.99,,,-99.99,,2013-03-17 11:12:00,
2013-03-17 07:22:00,59.0,55.0,30.08,ESE,107,1.0,-999.0,87,-99.99,,,-99.99,,2013-03-17 11:22:00,
2013-03-17 07:32:00,59.0,55.0,30.08,ESE,107,0.0,-999.0,86,-99.99,,,-99.99,,2013-03-17 11:32:00,
2013-03-17 07:42:00,59.0,55.0,30.08,ESE,107,0.0,-999.0,86,-99.99,,,-99.99,,2013-03-17 11:42:00,
2013-03-17 07:52:00,59.0,55.0,30.08,ESE,107,0.0,-999.0,86,-99.99,,,-99.99,,2013-03-17 11:52:00,
2013-03-17 08:02:00,59.0,55.0,30.09,ESE,107,0.0,-999.0,86,-99.99,,,-99.99,,2013-03-17 12:02:00,
2013-03-17 08:12:00,59.0,55.0,30.09,ESE,107,0.0,-999.0,86,-99.99,,,-99.99,,2013-03-17 12:12:00,
2013-03-17 08:22:00,59.0,55.0,30.10,ESE,107,1.0,-999.0,86,-99.99,,,-99.99,,2013-03-17 12:22:00,
2013-03-17 08:33:00,59.0,55.0,30.10,ESE,105,2.0,-999.0,86,-99.99,,,-99.99,,2013-03-17 12:33:00,
2013-03-17 08:43:00,59.0,55.0,30.10,ESE,105,2.0,-999.0,86,-99.99,,,-99.99,,2013-03-17 12:43:00,
2013-03-17 08:52:00,59.0,54.0,30.11,ENE,75,3.0,-999.0,85,-99.99,,,-99.99,,2013-03-17 12:52:00,
2013-03-17 09:02:00,59.0,54.0,30.11,ENE,69,4.0,-999.0,85,-99.99,,,-99.99,,2013-03-17 13:02:00,
2013-03-17 09:13:00,59.0,54.0,30.11,ENE,69,4.0,-999.0,85,-99.99,,,-99.99,,2013-03-17 13:13:00,
2013-03-17 09:22:00,60.0,55.0,30.11,ENE,72,3.0,-999.0,84,-99.99,,,-99.99,,2013-03-17 13:22:00,
2013-03-17 09:32:00,60.0,55.0,30.12,East,98,3.0,-999.0,84,-99.99,,,-99.99,,2013-03-17 13:32:00,
2013-03-17 09:43:00,60.0,55.0,30.12,East,98,3.0,-999.0,84,-99.99,,,-99.99,,2013-03-17 13:43:00,
2013-03-17 09:52:00,61.0,56.0,30.11,ESE,103,4.0,-999.0,83,-99.99,,,-99.99,,2013-03-17 13:52:00,
2013-03-17 10:02:00,62.0,56.0,30.11,ESE,104,3.0,-999.0,82,-99.99,,,-99.99,,2013-03-17 14:02:00,
2013-03-17 10:12:00,62.0,56.0,30.11,ESE,104,3.0,-999.0,82,-99.99,,,-99.99,,2013-03-17 14:12:00,
2013-03-17 10:22:00,63.0,57.0,30.11,ESE,106,4.0,-999.0,82,-99.99,,,-99.99,,2013-03-17 14:22:00,
2013-03-17 10:33:00,65.0,58.0,30.12,ESE,109,3.0,-999.0,77,-99.99,,,-99.99,,2013-03-17 14:33:00,
2013-03-17 10:42:00,65.0,58.0,30.12,ESE,109,3.0,-999.0,77,-99.99,,,-99.99,,2013-03-17 14:42:00,
2013-03-17 10:52:00,66.0,59.0,30.12,ESE,109,3.0,-999.0,78,-99.99,,,-99.99,,2013-03-17 14:52:00,
2013-03-17 11:02:00,67.0,59.0,30.12,ESE,119,5.0,-999.0,76,-99.99,,,-99.99,,2013-03-17 15:02:00,
2013-03-17 11:12:00,67.0,59.0,30.12,ESE,119,5.0,-999.0,76,-99.99,,,-99.99,,2013-03-17 15:12:00,
2013-03-17 11:23:00,68.0,60.0,30.13,ESE,116,5.0,-999.0,75,-99.99,,,-99.99,,2013-03-17 15:23:00,
2013-03-17 11:33:00,68.0,60.0,30.12,SE,130,4.0,-999.0,75,-99.99,,,-99.99,,2013-03-17 15:33:00,
2013-03-17 11:43:00,68.0,60.0,30.12,SE,130,4.0,-999.0,75,-99.99,,,-99.99,,2013-03-17 15:43:00,
2013-03-17 11:52:00,68.0,59.0,30.12,ESE,113,5.0,-999.0,74,-99.99,,,-99.99,,2013-03-17 15:52:00,
2013-03-17 12:03:00,69.0,60.0,30.12,ESE,119,4.0,-999.0,72,-99.99,,,-99.99,,2013-03-17 16:03:00,
2013-03-17 12:13:00,69.0,60.0,30.12,ESE,119,4.0,-999.0,72,-99.99,,,-99.99,,2013-03-17 16:13:00,
2013-03-17 12:23:00,70.0,60.0,30.12,ESE,119,4.0,-999.0,71,-99.99,,,-99.99,,2013-03-17 16:23:00,
2013-03-17 12:33:00,71.0,62.0,30.11,ESE,122,2.0,-999.0,72,-99.99,,,-99.99,,2013-03-17 16:33:00,
2013-03-17 12:43:00,71.0,62.0,30.11,ESE,122,2.0,-999.0,72,-99.99,,,-99.99,,2013-03-17 16:43:00,
2013-03-17 12:52:00,72.0,61.0,30.11,South,169,5.0,-999.0,68,-99.99,,,-99.99,,2013-03-17 16:52:00,
2013-03-17 13:03:00,73.0,60.0,30.10,SSE,150,6.0,-999.0,64,-99.99,,,-99.99,,2013-03-17 17:03:00,
2013-03-17 13:12:00,73.0,60.0,30.10,SSE,150,6.0,-999.0,64,-99.99,,,-99.99,,2013-03-17 17:12:00,
2013-03-17 13:22:00,73.0,60.0,30.10,SSE,162,4.0,-999.0,63,-99.99,,,-99.99,,2013-03-17 17:22:00,
2013-03-17 13:33:00,74.0,59.0,30.09,SSW,196,4.0,-999.0,60,-99.99,,,-99.99,,2013-03-17 17:33:00,
2013-03-17 13:42:00,74.0,59.0,30.09,SSW,196,4.0,-999.0,60,-99.99,,,-99.99,,2013-03-17 17:42:00,
2013-03-17 13:52:00,74.0,59.0,30.09,SSE,148,3.0,-999.0,60,-99.99,,,-99.99,,2013-03-17 17:52:00,
2013-03-17 14:02:00,77.0,59.0,30.08,SW,219,7.0,-999.0,54,-99.99,,,-99.99,,2013-03-17 18:02:00,
2013-03-17 14:12:00,77.0,59.0,30.08,SW,219,7.0,-999.0,54,-99.99,,,-99.99,,2013-03-17 18:12:00,
2013-03-17 14:22:00,78.0,60.0,30.08,SW,236,7.0,-999.0,54,-99.99,,,-99.99,,2013-03-17 18:22:00,
2013-03-17 14:32:00,78.0,59.0,30.07,SW,230,6.0,-999.0,53,-99.99,,,-99.99,,2013-03-17 18:32:00,
2013-03-17 14:42:00,78.0,59.0,30.07,SW,230,6.0,-999.0,53,-99.99,,,-99.99,,2013-03-17 18:42:00,
2013-03-17 14:52:00,78.0,59.0,30.06,South,186,8.0,-999.0,52,-99.99,,,-99.99,,2013-03-17 18:52:00,
2013-03-17 15:02:00,78.0,59.0,30.06,South,186,8.0,-999.0,52,-99.99,,,-99.99,,2013-03-17 19:02:00,
2013-03-17 15:12:00,78.0,59.0,30.06,South,186,8.0,-999.0,52,-99.99,,,-99.99,,2013-03-17 19:12:00,
2013-03-17 15:22:00,78.0,59.0,30.05,SSW,205,7.0,-999.0,52,-99.99,,,-99.99,,2013-03-17 19:22:00,
2013-03-17 15:33:00,76.0,58.0,30.05,SSW,201,8.0,-999.0,54,-99.99,,,-99.99,,2013-03-17 19:33:00,
2013-03-17 15:42:00,76.0,58.0,30.05,SSW,201,8.0,-999.0,54,-99.99,,,-99.99,,2013-03-17 19:42:00,
2013-03-17 15:53:00,77.0,60.0,30.04,WSW,253,7.0,-999.0,55,-99.99,,,-99.99,,2013-03-17 19:53:00,
2013-03-17 16:02:00,76.0,58.0,30.03,SSW,203,7.0,-999.0,53,-99.99,,,-99.99,,2013-03-17 20:02:00,
2013-03-17 16:12:00,76.0,58.0,30.03,SSW,203,7.0,-999.0,53,-99.99,,,-99.99,,2013-03-17 20:12:00,
2013-03-17 16:22:00,76.0,58.0,30.03,SW,227,7.0,-999.0,54,-99.99,,,-99.99,,2013-03-17 20:22:00,
2013-03-17 16:33:00,76.0,58.0,30.02,WSW,241,6.0,-999.0,54,-99.99,,,-99.99,,2013-03-17 20:33:00,
2013-03-17 16:42:00,76.0,58.0,30.02,WSW,241,6.0,-999.0,54,-99.99,,,-99.99,,2013-03-17 20:42:00,
2013-03-17 16:52:00,77.0,58.0,30.02,WSW,244,4.0,-999.0,52,-99.99,,,-99.99,,2013-03-17 20:52:00,
2013-03-17 17:03:00,77.0,58.0,30.02,SSW,207,6.0,-999.0,52,-99.99,,,-99.99,,2013-03-17 21:03:00,
2013-03-17 17:12:00,77.0,58.0,30.02,SSW,207,6.0,-999.0,52,-99.99,,,-99.99,,2013-03-17 21:12:00,
2013-03-17 17:22:00,75.0,58.0,30.01,SW,219,6.0,-999.0,56,-99.99,,,-99.99,,2013-03-17 21:22:00,
2013-03-17 17:33:00,74.0,58.0,30.01,South,191,6.0,-999.0,58,-99.99,,,-99.99,,2013-03-17 21:33:00,
2013-03-17 17:43:00,74.0,58.0,30.01,South,191,6.0,-999.0,58,-99.99,,,-99.99,,2013-03-17 21:43:00,
2013-03-17 17:52:00,75.0,59.0,30.01,SW,232,5.0,-999.0,57,-99.99,,,-99.99,,2013-03-17 21:52:00,
2013-03-17 18:03:00,75.0,59.0,30.01,South,176,5.0,-999.0,57,-99.99,,,-99.99,,2013-03-17 22:03:00,
2013-03-17 18:13:00,73.0,58.0,30.01,SW,227,6.0,-999.0,59,-99.99,,,-99.99,,2013-03-17 22:13:00,
2013-03-17 18:23:00,73.0,58.0,30.01,SW,227,6.0,-999.0,59,-99.99,,,-99.99,,2013-03-17 22:23:00,
2013-03-17 18:33:00,73.0,59.0,30.00,SSW,213,5.0,-999.0,61,-99.99,,,-99.99,,2013-03-17 22:33:00,
2013-03-17 18:42:00,73.0,59.0,30.00,SSW,213,5.0,-999.0,61,-99.99,,,-99.99,,2013-03-17 22:42:00,
2013-03-17 18:52:00,73.0,59.0,29.99,WSW,244,5.0,-999.0,61,-99.99,,,-99.99,,2013-03-17 22:52:00,
2013-03-17 19:03:00,73.0,59.0,30.00,SSW,201,4.0,-999.0,61,-99.99,,,-99.99,,2013-03-17 23:03:00,
2013-03-17 19:13:00,73.0,59.0,30.00,SSW,201,4.0,-999.0,61,-99.99,,,-99.99,,2013-03-17 23:13:00,
2013-03-17 19:22:00,72.0,59.0,30.00,SW,221,3.0,-999.0,63,-99.99,,,-99.99,,2013-03-17 23:22:00,
2013-03-17 19:33:00,72.0,59.0,30.00,SW,231,2.0,-999.0,64,-99.99,,,-99.99,,2013-03-17 23:33:00,
2013-03-17 19:43:00,72.0,59.0,30.00,SW,231,2.0,-999.0,64,-99.99,,,-99.99,,2013-03-17 23:43:00,
2013-03-17 19:52:00,71.0,59.0,30.01,WSW,238,4.0,-999.0,65,-99.99,,,-99.99,,2013-03-17 23:52:00,
2013-03-17 20:03:00,71.0,59.0,30.01,SSW,207,3.0,-999.0,66,-99.99,,,-99.99,,2013-03-18 00:03:00,
2013-03-17 20:13:00,71.0,59.0,30.01,SSW,207,3.0,-999.0,66,-99.99,,,-99.99,,2013-03-18 00:13:00,
2013-03-17 20:22:00,71.0,59.0,30.01,SSW,207,3.0,-999.0,66,-99.99,,,-99.99,,2013-03-18 00:22:00,
2013-03-17 20:33:00,70.0,59.0,30.01,WSW,237,2.0,-999.0,68,-99.99,,,-99.99,,2013-03-18 00:33:00,
2013-03-17 20:42:00,70.0,59.0,30.01,WSW,237,2.0,-999.0,68,-99.99,,,-99.99,,2013-03-18 00:42:00,
2013-03-17 20:53:00,69.0,58.0,30.01,SW,232,2.0,-999.0,69,-99.99,,,-99.99,,2013-03-18 00:53:00,
2013-03-17 21:02:00,69.0,59.0,30.01,SW,221,1.0,-999.0,71,-99.99,,,-99.99,,2013-03-18 01:02:00,
2013-03-17 21:12:00,69.0,59.0,30.01,SW,221,1.0,-999.0,71,-99.99,,,-99.99,,2013-03-18 01:12:00,
2013-03-17 21:22:00,68.0,59.0,30.02,SW,221,1.0,-999.0,72,-99.99,,,-99.99,,2013-03-18 01:22:00,
2013-03-17 21:33:00,68.0,59.0,30.02,SW,221,1.0,-999.0,74,-99.99,,,-99.99,,2013-03-18 01:33:00,
2013-03-17 21:42:00,68.0,59.0,30.02,SW,221,1.0,-999.0,74,-99.99,,,-99.99,,2013-03-18 01:42:00,
2013-03-17 21:52:00,68.0,60.0,30.03,SW,221,0.0,-999.0,76,-99.99,,,-99.99,,2013-03-18 01:52:00,
2013-03-17 22:02:00,67.0,60.0,30.03,SW,221,0.0,-999.0,77,-99.99,,,-99.99,,2013-03-18 02:02:00,
2013-03-17 22:12:00,67.0,60.0,30.03,SW,221,0.0,-999.0,77,-99.99,,,-99.99,,2013-03-18 02:12:00,
2013-03-17 22:22:00,67.0,60.0,30.03,SW,221,1.0,-999.0,78,-99.99,,,-99.99,,2013-03-18 02:22:00,
2013-03-17 22:32:00,67.0,61.0,30.03,SSW,192,1.0,-999.0,80,-99.99,,,-99.99,,2013-03-18 02:32:00,
2013-03-17 22:42:00,67.0,61.0,30.03,SSW,192,1.0,-999.0,80,-99.99,,,-99.99,,2013-03-18 02:42:00,
2013-03-17 22:52:00,66.0,60.0,30.04,SSW,192,1.0,-999.0,81,-99.99,,,-99.99,,2013-03-18 02:52:00,
2013-03-17 23:03:00,66.0,61.0,30.03,SSW,192,1.0,-999.0,83,-99.99,,,-99.99,,2013-03-18 03:03:00,
2013-03-17 23:12:00,66.0,61.0,30.03,SSW,192,1.0,-999.0,83,-99.99,,,-99.99,,2013-03-18 03:12:00,
2013-03-17 23:22:00,66.0,61.0,30.03,SSW,192,0.0,-999.0,84,-99.99,,,-99.99,,2013-03-18 03:22:00,
2013-03-17 23:33:00,66.0,61.0,30.04,SSW,192,0.0,-999.0,85,-99.99,,,-99.99,,2013-03-18 03:33:00,
2013-03-17 23:42:00,66.0,61.0,30.04,SSW,192,0.0,-999.0,85,-99.99,,,-99.99,,2013-03-18 03:42:00,
2013-03-17 23:53:00,66.0,62.0,30.04,SSW,192,0.0,-999.0,87,-99.99,,,-99.99,,2013-03-18 03:53:00,